Flight Track Log - Related Links

Times and Time Zones

All times are in EDT time to prevent confusion due to time zone crossing. See the UAL4434 flight status page for this flight to view local times or setup timezone preferences in your user account.


Time Position Orientation Groundspeed Altitude Reporting Facility
EDT Latitude Longitude Course Direction KTS MPH feet Rate Location/Type
Sat 02:36:41 PM 40.7333 -74.1333 40° Northeast 190 219 2,600  Level New York TRACON
Sat 02:37:41 PM 40.7833 -74.0833 37° Northeast 243 280 4,700 2,500 Climbing New York TRACON
Sat 02:38:41 PM 40.8000 -74.0000 75° East 260 299 7,600 2,105 Climbing New York TRACON
Sat 02:39:00 PM 40.9554 -73.8612 37° Northeast  Level FlightAware Approximate
Sat 02:40:00 PM 41.0283 -73.7849 40° Northeast  Level FlightAware Approximate
Sat 02:40:52 PM 40.8750 -73.8097 62° Northeast 280 322 11,400  Level Boston Center
Sat 02:41:00 PM 41.0991 -73.7052 40° Northeast  Level FlightAware Approximate
Sat 02:41:52 PM 40.9467 -73.7344 38° Northeast 303 349 12,900  Level Boston Center
Sat 02:42:52 PM 41.0264 -73.6753 29° Northeast 315 362 14,500 1,500 Climbing Boston Center
Sat 02:43:52 PM 41.1000 -73.6161 31° Northeast 331 381 15,900 1,500 Climbing Boston Center
Sat 02:44:52 PM 41.1925 -73.5433 31° Northeast 342 394 17,500 1,250 Climbing Boston Center
Sat 02:45:52 PM 41.2703 -73.4786 32° Northeast 348 400 18,400 750 Climbing Boston Center
Sat 02:46:52 PM 41.3667 -73.4053 30° Northeast 354 407 19,000 300 Climbing Boston Center
Sat 02:47:52 PM 41.4633 -73.3319 30° Northeast 378 435 19,000  Level Boston Center
Sat 02:48:52 PM 41.5431 -73.2333 43° Northeast 393 452 19,000  Level Boston Center
Sat 02:49:52 PM 41.6231 -73.1400 41° Northeast 388 447 19,000  Level Boston Center
Sat 02:51:04 PM 41.7314 -73.1272 North 371 427 19,000  Level Boston Center
Sat 02:52:04 PM 41.8481 -73.1453 353° North 371 427 19,000  Level Boston Center
Sat 02:53:04 PM 41.9667 -73.1633 354° North 389 448 19,000  Level Boston Center
Sat 02:54:04 PM 42.0644 -73.1783 354° North 389 448 19,000  Level Boston Center
Sat 02:55:04 PM 42.1811 -73.2078 349° North 384 442 19,000  Level Boston Center
Sat 02:56:04 PM 42.2661 -73.2453 342° North 359 413 19,000  Level Boston Center
Sat 02:57:04 PM 42.3597 -73.2858 342° North 359 413 19,000  Level Boston Center
Sat 02:58:04 PM 42.4639 -73.2928 357° North 348 400 19,000  Level Boston Center
Sat 02:59:04 PM 42.5167 -73.1864 56° Northeast 331 381 19,000  Level Boston Center
Sat 03:00:04 PM 42.5614 -73.0378 68° East 360 414 19,000  Level Boston Center
Sat 03:01:04 PM 42.6100 -72.9028 64° Northeast 388 447 19,000 -550 Level Boston Center
Sat 03:02:04 PM 42.6522 -72.7647 67° East 388 447 17,900 -1,300 Descending Boston Center
Sat 03:03:04 PM 42.6900 -72.6378 68° East 381 438 16,400 -1,700 Descending Boston Center
Sat 03:04:04 PM 42.7275 -72.5136 68° East 365 420 14,500 -2,150 Descending Boston Center
Sat 03:05:04 PM 42.7631 -72.4006 67° East 345 397 12,100 -2,150 Descending Boston Center
Sat 03:06:04 PM 42.7942 -72.2872 69° East 325 374 10,200 -1,600 Descending Boston Center
Sat 03:07:04 PM 42.7939 -72.1797 90° East 292 336 8,900 -1,550 Descending Boston Center
Sat 03:08:04 PM 42.7853 -72.0753 96° East 285 328 7,100 -1,600 Descending Boston Center
Sat 03:09:04 PM 42.7789 -71.9789 95° East 271 312 5,700 -1,000 Descending Boston Center
Sat 03:10:04 PM 42.7742 -71.8858 94° East 251 289 5,100 -350 Descending Boston Center
Sat 03:11:04 PM 42.7675 -71.7867 95° East 251 289 5,000 -50 Descending Boston Center
Sat 03:12:04 PM 42.7628 -71.6936 94° East 256 295 5,000  Level Boston Center
Sat 03:13:04 PM 42.7578 -71.6003 94° East 256 295 5,000 -450 Level Boston Center
Sat 03:14:04 PM 42.7531 -71.5097 94° East 251 289 4,100 -800 Descending Boston Center
Sat 03:15:04 PM 42.7711 -71.4247 74° East 235 270 3,400 -750 Descending Boston Center
Sat 03:16:04 PM 42.8122 -71.3731 43° Northeast 212 244 2,600 -700 Descending Boston Center
Sat 03:17:04 PM 42.8583 -71.3892 346° North 161 185 2,000 -600 Descending Boston Center

Login

Don't have an account? Register now (free) for customized features, flight alerts, and more!